Overview Statistics Trail Chart Weather Telemetry Raw packets
 

This is the latest recevied weather packets stored in our database for station/object NR6G-5. If no packets are shown the sender has not sent any weather packets the latest 10 day(s).

<< 24 25 26 27 28 29 30 >>
Time Temp. Humidity Pressure Rain* Wind** Luminosity Snow
1777401010 17.22° C 60% 1018.6 hPa 0 mm - - -
1777400710 16.67° C 60% 1018.6 hPa 0 mm - - -
1777400411 16.67° C 62% 1018.6 hPa 0 mm - - -
1777400110 16.67° C 62% 1018.8 hPa 0 mm - - -
1777399810 16.67° C 61% 1018.7 hPa 0 mm - - -
1777399510 16.67° C 63% 1018.9 hPa 0 mm - - -
1777399210 16.67° C 64% 1018.9 hPa 0 mm - - -
1777398910 16.11° C 64% 1019 hPa 0 mm - - -
1777398611 16.11° C 63% 1019.1 hPa 0 mm - - -
1777398311 16.11° C 64% 1019.2 hPa 0 mm - - -
1777398012 16.11° C 64% 1019.2 hPa 0 mm - - -
1777397710 15.56° C 65% 1019.1 hPa 0 mm - - -
1777397410 15.56° C 66% 1019.1 hPa 0 mm - - -
1777397110 15.56° C 65% 1019.2 hPa 0 mm - - -
1777396810 15° C 67% 1019.2 hPa 0 mm - - -
1777396510 15° C 66% 1019.3 hPa 0 mm - - -
1777396210 15° C 67% 1019.3 hPa 0 mm - - -
1777395910 15° C 67% 1019.3 hPa 0 mm - - -
1777395610 14.44° C 69% 1019.3 hPa 0 mm - - -
1777395310 14.44° C 68% 1019.3 hPa 0 mm - - -
1777395010 14.44° C 69% 1019.3 hPa 0 mm - - -
1777394410 13.89° C 72% 1019.4 hPa 0 mm - - -
1777394110 13.89° C 72% 1019.5 hPa 0 mm - - -
1777393812 13.33° C 73% 1019.5 hPa 0 mm - - -
1777393510 12.78° C 74% 1019.5 hPa 0 mm - - -

* Rain latest hour (hover to see other rain measurements)
** Current wind speed in m/s (hover to see current wind gust speed)